ORBCOMM FM113 [+] (41185 NORAD) Tracking and Keplerian Element Data

This shows tracking and keplerian element data for the satellite.

Feedback or suggestion? Click here.




ElementValue
Catalog41185
NameORBCOMM FM113 [+]
Epoch Orbit13772
Epoch Day198.96630236
Epoch Year2018
RAAN195.5896
Inclination47
Eccentricity0.0001486
Argument of Perigee357.5226
Mean Anonmoly2.5651
Mean Motion14.54722816
Decay Rate7E-07
L11 41185U 15081G 18198.96630236 .00000070 00000-0 54448-4 0 9992
L22 41185 47.0000 195.5896 0001486 357.5226 2.5651 14.54722816137723

Live tracking and technical data element details for ORBCOMM FM113 [+] (NORAD 41185). ORBCOMM FM113 [+] can be tracked NOW for your location showing map with azimuth and elevation plus other details from your city location.

Track the satellite on the map from your city or location and see movement details for azimuth, elevation, latitude, longitude, range, height, and movement on the map or in text.







IsCatalogInMostPopularTable: catalog: 41185, numindb: 71
Update: records affected: 1



GetName: 41185 ORBCOMM FM113 [+]

Hit Count: updated at: Wed, 18 Jul 2018 20:27:20 GMT